Regional Weather Roundup
Issued by NWS Charleston, SC

Current Version | Previous Version | Text Only | Print | Product List | Glossary Off
Versions: 1 2 3 4 5 6 7 8 9 10 11 12 13 14 15 16 17 18 19 20 21 22 23 24 25 26 27 28 29 30 31 32 33 34 35 36 37 38 39 40 41 42 43 44 45 46 47 48 49 50
000 ASUS42 KCHS 242212 RWRCHS REGIONAL WEATHER ROUNDUP NATIONAL WEATHER SERVICE CHARLESTON SC 500 PM EST FRI FEB 24 2017 NOTE: "FAIR" INDICATES FEW OR NO CLOUDS BELOW 12,000 FEET WITH NO SIGNIFICANT WEATHER AND/OR OBSTRUCTIONS TO VISIBILITY. NOT ALL STATIONS ARE QUALITY CONTROLLED. USE DATA WITH CAUTION... ESPECIALLY DEWPOINT OBSERVATIONS. SCZ027-030-031-034>040-042>050-242300- ...SOUTHEAST SOUTH CAROLINA... CITY SKY/WX TMP DP RH WIND PRES REMARKS N CHARLESTON MOSUNNY 75 58 55 SE14 29.83R WATERFRONT PRK N/A 71 64 78 E10 29.82R MOUNT PLEASANT LGT RAIN 72 63 73 E6 29.84S JOHNS ISLAND FAIR 72 63 73 E10 29.84S PINOPOLIS N/A 73 59 60 CALM 29.74F MONCKS CORNER FAIR 75 57 53 SE6 29.82S SUMMERVILLE MOCLDY 79 55 44 SE3 29.83R HAZE BEAUFORT MCAS MOSUNNY 76 63 64 SE8 29.84R BEAUFORT ARPT FAIR 72 61 68 SE6 29.84R HILTON HEAD IS SUNNY 68 63 83 NE3 29.85S WALTERBORO PTCLDY 77 55 47 S6 29.83R ALLENDALE FAIR 79 54 41 CALM 29.82R ...SOUTHERN MIDLANDS AND PEE DEE... CITY SKY/WX TMP DP RH WIND PRES REMARKS GEORGETOWN FAIR 70 61 73 SE9 29.85S KINGSTREE FAIR 77 55 47 CALM 29.82S ORANGEBURG SUNNY 78 55 44 VRB5 29.82S BARNWELL FAIR 81 57 44 CALM 29.82S AIKEN FAIR 77 52 41 SE6 29.85S MANNING FAIR 75 55 50 MISG 29.82R COLUMBIA MOSUNNY 80 52 37 SE5 29.81S SUMTER SUNNY 79 53 39 SW6 29.80S FLORENCE MOSUNNY 75 56 51 E3 29.83R MYRTLE BEACH SUNNY 70 61 73 E12 29.86S N MYRTLE BEACH SUNNY 69 61 75 E9 29.84S $$ GAZ063-065-086>088-099>101-113>116-118-119-134>141-150-242300- ...SOUTHEAST GEORGIA... CITY SKY/WX TMP DP RH WIND PRES REMARKS SAVANNAH ARPT MOSUNNY 77 57 50 E10 29.84R HUNTER AAF SUNNY 74 64 70 E7 29.82R FORT STEWART SUNNY 77 59 53 E8 29.81R STATESBORO MOSUNNY 81 59 47 CALM 29.82S SYLVANIA CLEAR N/A N/A N/A S3 29.83S CLAXTON FAIR 79 59 49 SE5 29.82S ...CSRA...CENTRAL AND FAR SOUTHEAST GEORGIA... CITY SKY/WX TMP DP RH WIND PRES REMARKS THOMSON SUNNY 81 56 42 SW3 29.86S AUGUSTA-BUSH MOSUNNY 79 54 41 SW7 29.80S AUGUSTA-DANIEL MOSUNNY 80 51 36 CALM 29.82F SWAINSBORO FAIR 79 54 41 SE5 29.83S VIDALIA SUNNY 79 61 53 CALM 29.82S EASTMAN MOCLDY 83 33 16 CALM 29.84S HAZLEHURST MOCLDY 81 59 46 CALM 29.81S ALMA SUNNY 75 61 61 CALM 29.81S WAYCROSS PTSUNNY 83 64 52 E6 29.80S JESUP FAIR 79 59 50 SE9 29.82S BAXLEY PTSUNNY 79 63 57 CALM 29.81S BRUNSWICK SUNNY 73 64 73 E12 29.84S SAINT SIMONS SUNNY 71 63 75 E12 29.84R $$ SCZ027-028-034-036>038-045-046-048>050-GAZ119-141-242300- ...LAKE AND SUPPLEMENTAL COASTAL OBSERVATIONS... STATION/POSITION TIME TEMP WIND PRES WAVE SWELL AIR SEA DIR/SP/G HT/PER HT/PER/DIR (UTC) (F) (DEG/KT/KT) (MB) (FT/S) (FT/S/D) WINYAH BAY 2045 69 80/ 9 1010.0 LAKE MURRAY 2120 78 CALM / 2 1009.1 ACE BASIN NERRS NOT AVBL FORT PULASKI 2148 65 63 100/ 7/ 8 1010.9R SAPELO ISLAND 2100 74 70/ 9 1010.0 $$ ANZ835-935-AMZ111-154-330-350-352-354-370-450-454-472-242300- ...C-MAN AND BUOY OBSERVATIONS... STATION/POSITION TIME TEMP WIND PRES WAVE SWELL AIR SEA DIR/SP/G HT/PER HT/PER/DIR (UTC) (F) (DEG/KT/KT) (MB) (FT/S) (FT/S/D) BUOY 41004 2150 69 71 20/ 12/ 14 1009.6R 7/10 7/110/10 BUOY 41008 2050 64 63 20/ 8/ 8 1009.9 5/11 5/ 90/11 FOLLY BEACH CMAN 2100 65 80/ 10/ 11 1011.0F CAPERS NEARSHORE 2108 63 61 80/ 10/ 12 1010.2F FRIPP NEARSHORE 2108 64 62 80/ 8/ 10 1010.1F STATION/POSITION TIME TEMP WIND PRES WAVE SWELL AIR SEA DIR/SP/G HT/PER HT/PER/DIR (UTC) (F) (DEG/KT/KT) (MB) (FT/S) (FT/S/D) 5E ST. MARYS GA 2130 65 N/A 5/11 2/ 90/11 FRYING PAN BUOY 2150 70 72 30/ 14/ 17 1009.9F 7/11 7/150/11 BUOY 41025 2150 72 77 100/ 14/ 19 1011.0R 7/ 9 7/120/ 9 CAPE LOOKOUT NC 2100 68 70/ 5/ 6 1010.8F BUOY 41002 2150 70 70 60/ 10/ 12 1006.6R 12/10 11/100/10 BUOY 41010 NOT AVBL ST AUGUSTINE FL 2200 66 68 360/ 9/ 10 1010.6R $$

USA.gov is the U.S. government's official web portal to all federal, state and local government web resources and services.